Weather History for Joplin, MO

Change the Weather History Date:

Monday, May 6, 2013

  Actual Average Record
Temperature  
Mean Temperature 55 °F 64 °F  
Max Temperature 63 °F 75 °F 90 °F (1952)
Min Temperature 47 °F 53 °F 33 °F (1992)
Degree Days  
Heating Degree Days 10 3  
Month to date heating degree days 99 22  
Since 1 July heating degree days 4203 4025  
Cooling Degree Days 0 3  
Month to date cooling degree days 5 14  
Year to date cooling degree days 35 68  
Growing Degree Days 5 (Base 50)    
Moisture  
Dew Point 49 °F    
Average Humidity 84    
Maximum Humidity 100    
Minimum Humidity 67    
Precipitation  
Precipitation 0.00 in 0.20 in 3.02 in (1973)
Month to date precipitation 1.33 1.17  
Year to date precipitation 15.83 13.41  
Snow  
Snow 0.00 in - - ()
Month to date snowfall 0.0  
Snow Depth 0.00 in    
Sea Level Pressure  
Sea Level Pressure 30.08 in    
Wind  
Wind Speed 4 mph (NNW)    
Max Wind Speed 12 mph    
Max Gust Speed 16 mph    
Visibility 5 miles    
Events      
T = Trace of Precipitation, MM = Missing Value Source: NWS Daily Summary

Daily Weather History Graph

Daily Weather History Graph

Search for Another Location

Airport:

Trip Planner

Search our weather history database for the weather conditions in past years. The results will help you decide how hot, cold, wet, or windy it might be!

Date:

Astronomy

May. 06, 2013 Rise Set
Actual Time 6:17 AM CDT 8:11 PM CDT
Civil Twilight 5:49 AM CDT 8:40 PM CDT
Nautical Twilight 5:14 AM CDT 9:14 PM CDT
Astronomical Twilight 4:38 AM CDT 9:52 PM CDT
Moon 4:15 AM CDT (5/6) 5:16 PM CDT (5/6)
Length of Visible Light 14h 51m
Length of Day
13h 54m
Waning Crescent, 11% of the Moon is Illuminated
May 6
Waning Crescent
May 9
New
May 17
First Quarter
May 24
Full
May 31
Last Quarter

Hourly Weather History & Observations

Time (CDT) Temp. Dew Point Humidity Pressure Visibility Wind Dir Wind Speed Gust Speed Precip Events Conditions
12:53 AM 50.0 °F 46.9 °F 89% 30.07 in 10.0 mi WNW 6.9 mph - N/A   Overcast
1:53 AM 50.0 °F 46.9 °F 89% 30.06 in 9.0 mi NNW 5.8 mph - N/A   Overcast
2:42 AM 50.0 °F 46.4 °F 87% 30.06 in 8.0 mi North 8.1 mph - N/A   Overcast
2:53 AM 50.0 °F 46.9 °F 89% 30.06 in 8.0 mi North 9.2 mph - N/A   Overcast
3:53 AM 48.9 °F 46.9 °F 93% 30.05 in 6.0 mi North 6.9 mph - N/A   Overcast
4:53 AM 48.9 °F 46.9 °F 93% 30.05 in 5.0 mi North 5.8 mph - N/A   Overcast
5:53 AM 48.0 °F 46.9 °F 96% 30.07 in 4.0 mi NNW 9.2 mph - N/A   Overcast
6:45 AM 48.2 °F 46.4 °F 93% 30.07 in 2.5 mi NNW 10.4 mph - N/A   Overcast
6:53 AM 48.0 °F 46.9 °F 96% 30.08 in 2.0 mi NNW 9.2 mph - N/A   Overcast
7:53 AM 48.9 °F 46.9 °F 93% 30.09 in 2.5 mi North 6.9 mph - N/A   Overcast
8:07 AM 48.2 °F 46.4 °F 93% 30.09 in 1.5 mi NNW 6.9 mph - N/A   Overcast
8:24 AM 48.2 °F 48.2 °F 100% 30.09 in 0.8 mi NNW 6.9 mph - N/A   Overcast
8:53 AM 48.9 °F 48.9 °F 100% 30.10 in 1.0 mi NNW 4.6 mph - N/A   Overcast
9:02 AM 48.2 °F 48.2 °F 100% 30.10 in 1.2 mi NNW 4.6 mph - N/A   Overcast
9:36 AM 50.0 °F 48.2 °F 94% 30.11 in 2.0 mi North 8.1 mph - N/A   Overcast
9:53 AM 50.0 °F 48.0 °F 93% 30.12 in 2.0 mi North 5.8 mph - N/A   Overcast
10:53 AM 51.1 °F 48.9 °F 92% 30.12 in 2.0 mi NNW 6.9 mph - N/A   Overcast
11:43 AM 51.8 °F 48.2 °F 88% 30.13 in 3.0 mi NNW 4.6 mph - N/A   Overcast
11:50 AM 51.8 °F 48.2 °F 88% 30.13 in 3.0 mi NW 5.8 mph - N/A   Overcast
11:53 AM 52.0 °F 50.0 °F 93% 30.13 in 3.0 mi WNW 4.6 mph - N/A   Overcast
12:53 PM 53.1 °F 50.0 °F 89% 30.11 in 5.0 mi NNW 5.8 mph - N/A   Overcast
1:53 PM 55.0 °F 50.0 °F 83% 30.10 in 5.0 mi NW 10.4 mph - N/A   Haze
2:53 PM 57.0 °F 51.1 °F 81% 30.09 in 8.0 mi WNW 8.1 mph - N/A   Overcast
3:32 PM 57.2 °F 51.8 °F 82% 30.08 in 8.0 mi Variable 5.8 mph - N/A   Overcast
3:53 PM 59.0 °F 52.0 °F 78% 30.06 in 9.0 mi Variable 5.8 mph - N/A   Overcast
4:53 PM 59.0 °F 52.0 °F 78% 30.06 in 9.0 mi Variable 5.8 mph - N/A   Mostly Cloudy
5:35 PM 62.6 °F 51.8 °F 68% 30.06 in 10.0 mi Variable 3.5 mph - N/A   Scattered Clouds
5:53 PM 62.1 °F 51.1 °F 67% 30.05 in 10.0 mi Variable 3.5 mph - N/A   Scattered Clouds
6:53 PM 61.0 °F 52.0 °F 72% 30.04 in 10.0 mi Variable 3.5 mph - N/A   Clear
7:53 PM 57.0 °F 52.0 °F 83% 30.05 in 10.0 mi Calm Calm - N/A   Clear
8:53 PM 54.0 °F 51.1 °F 90% 30.06 in 9.0 mi Calm Calm - N/A   Clear
9:53 PM 51.1 °F 50.0 °F 96% 30.08 in 7.0 mi South 3.5 mph - N/A   Clear
10:53 PM 48.9 °F 48.0 °F 97% 30.09 in 3.0 mi South 3.5 mph - N/A   Clear
11:48 PM 48.2 °F 46.4 °F 93% 30.09 in 2.5 mi South 3.5 mph - 0.01 in   Clear
11:53 PM 46.9 °F 46.9 °F 100% 30.09 in 3.0 mi Calm Calm - 0.01 in   Clear